Location: Prairie State College
(41.5244°N, 87.6382°W)
Time: 00:06:08
(UTC-05:00)

Amateur Radio Satellites - All Passes

Search period start: 27 August 2014 23:36
Search period end: 28 August 2014 23:36
Location: Prairie State College, 41.5244°N, 87.6382°W

Satellite Date Start Highest point End Downlink Frequencies (MHz)
Time Altitude Azimuth
MaSat-1 27 Aug 23:38:56 23:43:40 85° 64° (ENE) 23:47:44 437.345 MHz
Saudisat 1A 28 Aug 00:00:25 00:04:48 67° 305° (NW) 00:09:13 436.775 MHz
PCSat 28 Aug 00:45:16 00:45:26 10° 33° (NNE) 00:45:36 145.825 MHz
KITSAT 1 28 Aug 00:55:22 01:03:26 71° 303° (WNW) 01:11:33 435.175 FM
Oscar 19 28 Aug 01:01:44 01:02:47 11° 88° (E) 01:03:49 437.125 CW, 437.150 USB
Oscar 16 28 Aug 01:33:23 01:37:34 24° 94° (E) 01:41:43 437.025 USB, Beacon 2401.1428
Uribyol 2 28 Aug 01:37:37 01:38:42 11° 88° (E) 01:39:47 436.500 FM
Saudisat 1A 28 Aug 01:43:46 01:45:14 11° 325° (NW) 01:46:42 436.775 MHz
AO-Echo 28 Aug 01:52:32 01:55:11 15° 91° (E) 01:57:49 ?
AO-27 28 Aug 01:53:18 01:56:18 15° 91° (E) 01:59:18 436.795 MHz FM
Sapphire 28 Aug 01:55:31 02:00:07 27° 48° (NE) 02:04:42 437.095 MHz 1200 baud AX-25 AFSK
PCSat 28 Aug 02:25:00 02:30:16 47° 55° (NE) 02:35:28 145.825 MHz
Oscar 19 28 Aug 02:37:34 02:42:48 89° 284° (WNW) 02:47:59 437.125 CW, 437.150 USB
JAS-1B 28 Aug 02:47:38 02:54:14 44° 96° (E) 02:59:55 435.800 - 435.900 CW/SSB
KITSAT 1 28 Aug 02:54:30 03:00:23 21° 327° (NNW) 03:06:18 435.175 FM
TMSAT-1 28 Aug 02:56:25 03:00:18 20° 92° (E) 03:04:10 436.925 FM
OPAL 28 Aug 02:57:26 03:00:25 16° 58° (ENE) 03:03:25 ?
ITAMSAT 1 28 Aug 03:02:50 03:08:01 70° 102° (ESE) 03:13:11 435.822 SSB
Oscar 16 28 Aug 03:12:11 03:17:03 42° 291° (WNW) 03:21:55 437.025 USB, Beacon 2401.1428
Uribyol 2 28 Aug 03:13:37 03:18:50 88° 284° (WNW) 03:24:02 436.500 FM
AO-Echo 28 Aug 03:29:43 03:34:19 55° 287° (WNW) 03:38:54 ?
AO-27 28 Aug 03:31:07 03:36:15 64° 287° (WNW) 03:41:22 436.795 MHz FM
SO-50 28 Aug 03:31:22 03:34:03 16° 109° (ESE) 03:36:47 436.795 FM
Sapphire 28 Aug 03:38:34 03:43:46 48° 247° (WSW) 03:48:57 437.095 MHz 1200 baud AX-25 AFSK
Gurwin Techsat 1B 28 Aug 03:41:37 03:46:57 73° 103° (ESE) 03:52:14 435.225 FM
AO-7 28 Aug 03:55:35 04:01:33 21° 92° (E) 04:07:29 29.400 - 29.500 MHz
PCSat 28 Aug 04:09:01 04:13:22 25° 252° (WSW) 04:17:42 145.825 MHz
Uosat F 28 Aug 04:17:58 04:21:48 22° 94° (E) 04:25:37 435.120 FM
Oscar 19 28 Aug 04:19:21 04:21:20 12° 302° (WNW) 04:23:19 437.125 CW, 437.150 USB
OPAL 28 Aug 04:33:40 04:38:41 71° 255° (WSW) 04:43:48 ?
TMSAT-1 28 Aug 04:35:23 04:40:30 50° 289° (WNW) 04:45:35 436.925 FM
JAS-1B 28 Aug 04:38:36 04:44:35 30° 300° (WNW) 04:49:51 435.800 - 435.900 CW/SSB
ITAMSAT 1 28 Aug 04:43:54 04:46:56 16° 299° (WNW) 04:49:58 435.822 SSB
Uribyol 2 28 Aug 04:55:35 04:57:31 12° 302° (WNW) 04:59:27 436.500 FM
KITSAT 1 28 Aug 04:57:37 04:59:41 11° 358° (N) 05:01:45 435.175 FM
SO-50 28 Aug 05:09:43 05:14:07 57° 307° (NW) 05:18:39 436.795 FM
Gurwin Techsat 1B 28 Aug 05:23:13 05:26:17 16° 300° (WNW) 05:29:21 435.225 FM
UOSAT-12 28 Aug 05:46:12 05:50:10 29° 113° (ESE) 05:54:13 437.025 FM, 437.400 FM
AO-7 28 Aug 05:46:51 05:55:10 80° 290° (WNW) 06:03:25 29.400 - 29.500 MHz
Hamsat 28 Aug 05:47:13 05:49:59 16° 91° (E) 05:52:43 145.90 MHz
Uosat F 28 Aug 05:56:03 06:00:46 43° 290° (WNW) 06:05:28 435.120 FM
STRAND 1 28 Aug 06:12:56 06:17:42 42° 69° (ENE) 06:22:29 ?
JAS-2 28 Aug 06:33:40 06:38:40 46° 100° (E) 06:43:58 435.800 - 435.900 CW/SSB, 435.910 FM
Saudisat 1A 28 Aug 06:48:41 06:51:19 15° 39° (NE) 06:53:55 436.775 MHz
KITSAT 1 28 Aug 06:53:50 06:59:11 19° 29° (NNE) 07:04:31 435.175 FM
SO-50 28 Aug 06:54:40 06:55:43 11° 327° (NNW) 06:56:47 436.795 FM
SO-67 28 Aug 07:06:32 07:08:33 15° 92° (E) 07:10:34 435.3500 MHz FM
RS-15 28 Aug 07:12:43 07:22:08 34° 106° (ESE) 07:31:23 29.354 - 29.394 USB, Beacon 29.352 USB
Hamsat 28 Aug 07:22:00 07:26:10 44° 288° (WNW) 07:30:16 145.90 MHz
UOSAT-12 28 Aug 07:25:58 07:30:13 35° 311° (NW) 07:34:33 437.025 FM, 437.400 FM
AO-7 28 Aug 07:41:20 07:46:42 19° 311° (NW) 07:52:04 29.400 - 29.500 MHz
STRAND 1 28 Aug 07:53:01 07:57:02 23° 266° (W) 08:01:04 ?
JAS-2 28 Aug 08:19:38 08:23:33 22° 296° (WNW) 08:27:36 435.800 - 435.900 CW/SSB, 435.910 FM
Saudisat 1A 28 Aug 08:27:02 08:31:28 82° 238° (WSW) 08:35:52 436.775 MHz
SO-67 28 Aug 08:38:37 08:41:41 30° 288° (WNW) 08:44:44 435.3500 MHz FM
HO-68 28 Aug 08:41:12 08:46:14 20° 91° (E) 08:51:13 435.675 MHz FM
KITSAT 1 28 Aug 08:48:31 08:56:30 59° 53° (NE) 09:04:25 435.175 FM
RS-15 28 Aug 09:22:38 09:33:39 69° 307° (NW) 09:44:35 29.354 - 29.394 USB, Beacon 29.352 USB
HO-68 28 Aug 10:27:26 10:34:34 75° 289° (WNW) 10:41:42 435.675 MHz FM
UKube-1 28 Aug 10:31:32 10:35:53 82° 285° (WNW) 10:40:13 145.840 MHz, 145.915 MHz
Oscar 11 28 Aug 10:40:31 10:44:55 82° 103° (ESE) 10:49:16 145.825 FM, Beacon 2401.500 USB
KITSAT 1 28 Aug 10:44:32 10:51:27 33° 253° (WSW) 10:58:20 435.175 FM
AO-40 28 Aug 10:47:33 02:44:40 40° 183° (S) 11:20:56 Beacon 2401.320
FUNcube-1 28 Aug 10:58:34 11:02:58 51° 100° (E) 11:07:26 145.950 - 145.970 MHz USB
ISS 28 Aug 11:12:08 11:15:07 32° 136° (SE) 11:18:08 145.800 FM
RS-15 28 Aug 11:39:43 11:48:29 26° 336° (NNW) 11:57:18 29.354 - 29.394 USB, Beacon 29.352 USB
JAS-1B 28 Aug 11:46:48 11:49:35 12° 47° (NE) 11:52:18 435.800 - 435.900 CW/SSB
SO-50 28 Aug 12:01:15 12:04:50 21° 42° (NE) 12:08:27 436.795 FM
HO-68 28 Aug 12:17:18 12:21:06 15° 308° (NW) 12:24:55 435.675 MHz FM
Oscar 19 28 Aug 12:17:35 12:20:56 18° 62° (ENE) 12:24:18 437.125 CW, 437.150 USB
Oscar 11 28 Aug 12:19:53 12:20:25 10° 299° (WNW) 12:20:57 145.825 FM, Beacon 2401.500 USB
FUNcube-1 28 Aug 12:36:07 12:38:59 17° 295° (WNW) 12:41:52 145.950 - 145.970 MHz USB
ITAMSAT 1 28 Aug 12:44:45 12:47:25 14° 60° (ENE) 12:50:05 435.822 SSB
ISS 28 Aug 12:48:45 12:51:50 34° 334° (NNW) 12:54:56 145.800 FM
Oscar 16 28 Aug 12:50:24 12:55:03 36° 68° (ENE) 12:59:44 437.025 USB, Beacon 2401.1428
Uribyol 2 28 Aug 12:54:27 12:57:55 19° 62° (ENE) 13:01:24 436.500 FM
AO-Echo 28 Aug 13:05:13 13:09:05 23° 66° (ENE) 13:12:53 ?
AO-27 28 Aug 13:11:17 13:15:26 25° 65° (ENE) 13:19:37 436.795 MHz FM
Gurwin Techsat 1B 28 Aug 13:25:48 13:28:54 16° 60° (ENE) 13:32:00 435.225 FM
MaSat-1 28 Aug 13:26:47 13:31:14 38° 107° (ESE) 13:35:59 437.345 MHz
JAS-1B 28 Aug 13:28:57 13:38:12 49° 66° (ENE) 13:46:37 435.800 - 435.900 CW/SSB
SO-50 28 Aug 13:41:04 13:45:48 63° 241° (WSW) 13:50:35 436.795 FM
Oscar 19 28 Aug 13:54:40 13:59:46 62° 259° (W) 14:04:55 437.125 CW, 437.150 USB
RS-15 28 Aug 13:58:03 14:06:04 22° 13° (NNE) 14:14:11 29.354 - 29.394 USB, Beacon 29.352 USB
PANSAT 28 Aug 14:15:09 14:16:20 11° 175° (S) 14:17:31 not established
UOSAT-12 28 Aug 14:15:16 14:19:26 30° 47° (NE) 14:23:33 437.025 FM, 437.400 FM
TMSAT-1 28 Aug 14:17:08 14:21:48 33° 67° (ENE) 14:26:28 436.925 FM
ITAMSAT 1 28 Aug 14:21:05 14:26:15 78° 257° (WSW) 14:31:27 435.822 SSB
ISS 28 Aug 14:27:16 14:29:19 15° 353° (N) 14:31:22 145.800 FM
Oscar 16 28 Aug 14:30:02 14:34:25 28° 265° (W) 14:38:51 437.025 USB, Beacon 2401.1428
Uribyol 2 28 Aug 14:31:52 14:36:56 58° 259° (W) 14:42:02 436.500 FM
AO-Echo 28 Aug 14:42:46 14:47:36 43° 261° (W) 14:52:19 ?
AO-27 28 Aug 14:49:51 14:54:43 41° 262° (W) 14:59:37 436.795 MHz FM
AO-7 28 Aug 14:54:37 15:01:44 33° 57° (ENE) 15:08:50 29.400 - 29.500 MHz
Gurwin Techsat 1B 28 Aug 15:02:57 15:08:14 72° 258° (WSW) 15:13:34 435.225 FM
MaSat-1 28 Aug 15:04:02 15:08:23 30° 306° (NW) 15:12:56 437.345 MHz
JAS-1B 28 Aug 15:19:15 15:28:35 46° 262° (W) 15:37:14 435.800 - 435.900 CW/SSB
Uosat F 28 Aug 15:31:16 15:35:40 32° 67° (ENE) 15:40:04 435.120 FM
PANSAT 28 Aug 15:55:01 15:55:43 10° 188° (S) 15:56:24 not established
UOSAT-12 28 Aug 15:55:19 15:59:39 36° 245° (WSW) 16:03:54 437.025 FM, 437.400 FM
TMSAT-1 28 Aug 15:56:59 16:01:40 32° 264° (W) 16:06:23 436.925 FM
ISS 28 Aug 16:04:37 16:07:01 18° 14° (NNE) 16:09:25 145.800 FM
RS-15 28 Aug 16:11:30 16:22:06 48° 44° (NE) 16:33:01 29.354 - 29.394 USB, Beacon 29.352 USB
Oscar 10/S400 28 Aug 16:35:06 16:50:20 25° 144° (SE) 17:08:16 145.825 - 145.975 CW/USB, Beacon 145.810 USB
Sapphire 28 Aug 16:38:33 16:42:32 21° 106° (ESE) 16:46:32 437.095 MHz 1200 baud AX-25 AFSK
Hamsat 28 Aug 16:41:50 16:43:49 13° 63° (ENE) 16:45:50 145.90 MHz
OPAL 28 Aug 16:43:43 16:48:18 30° 98° (E) 16:52:50 ?
AO-7 28 Aug 16:45:49 16:54:02 61° 256° (WSW) 17:02:17 29.400 - 29.500 MHz
JAS-2 28 Aug 16:47:18 16:51:49 22° 64° (ENE) 16:56:01 435.800 - 435.900 CW/SSB, 435.910 FM
PCSat 28 Aug 17:06:59 17:12:01 41° 112° (ESE) 17:17:05 145.825 MHz
Uosat F 28 Aug 17:10:01 17:14:24 30° 264° (W) 17:18:49 435.120 FM
ISS 28 Aug 17:40:57 17:44:16 64° 33° (NNE) 17:47:34 145.800 FM
Hamsat 28 Aug 18:15:00 18:19:15 62° 260° (W) 18:23:34 145.90 MHz
Sapphire 28 Aug 18:20:14 18:25:31 54° 304° (WNW) 18:30:51 437.095 MHz 1200 baud AX-25 AFSK
OPAL 28 Aug 18:22:28 18:27:10 35° 295° (WNW) 18:31:50 ?
RS-15 28 Aug 18:24:01 18:34:41 56° 247° (WSW) 18:45:47 29.354 - 29.394 USB, Beacon 29.352 USB
STRAND 1 28 Aug 18:25:00 18:27:29 14° 90° (E) 18:29:57 ?
JAS-2 28 Aug 18:30:22 18:36:37 57° 259° (W) 18:42:11 435.800 - 435.900 CW/SSB, 435.910 FM
PCSat 28 Aug 18:50:46 18:55:32 31° 310° (NW) 19:00:20 145.825 MHz
SO-67 28 Aug 19:11:08 19:14:35 85° 77° (ENE) 19:18:05 435.3500 MHz FM
HO-68 28 Aug 19:11:37 19:15:56 17° 53° (NE) 19:20:15 435.675 MHz FM
ISS 28 Aug 19:18:38 19:20:39 15° 229° (SW) 19:22:41 145.800 FM
STRAND 1 28 Aug 20:02:05 20:07:10 71° 286° (WNW) 20:12:14 ?
Sapphire 28 Aug 20:08:35 20:10:13 11° 325° (NW) 20:11:51 437.095 MHz 1200 baud AX-25 AFSK
HO-68 28 Aug 20:55:28 21:02:36 84° 72° (ENE) 21:09:47 435.675 MHz FM
UKube-1 28 Aug 21:26:57 21:31:18 88° 76° (ENE) 21:35:40 145.840 MHz, 145.915 MHz
Oscar 11 28 Aug 21:35:28 21:39:45 65° 74° (ENE) 21:44:04 145.825 FM, Beacon 2401.500 USB
MaSat-1 28 Aug 21:46:10 21:47:48 12° 42° (NE) 21:49:23 437.345 MHz
FUNcube-1 28 Aug 21:55:29 21:59:22 39° 71° (ENE) 22:03:19 145.950 - 145.970 MHz USB
Saudisat 1A 28 Aug 22:34:16 22:37:51 25° 113° (ESE) 22:41:27 436.775 MHz
HO-68 28 Aug 22:46:39 22:51:05 17° 270° (W) 22:55:33 435.675 MHz FM
Oscar 11 28 Aug 23:15:04 23:16:22 11° 271° (W) 23:17:40 145.825 FM, Beacon 2401.500 USB
KITSAT 1 28 Aug 23:17:14 23:24:31 39° 109° (ESE) 23:31:49 435.175 FM
MaSat-1 28 Aug 23:21:08 23:25:51 79° 64° (ENE) 23:29:52 437.345 MHz
